Main page
METAR-TAF:

METAR-TAF

Airports :

Indira Gandhi International Airport

New Delhi, India

latitude: 28-34N, longitude: 077-07E, elevation: 220 m

Current weather observation

The report was made 37 minutes ago, at 23:30 UTC
Calm wind
Temperature 24°C
Humidity 27%
Pressure 1011 hPa
Visibility: 2500 m
haze

METAR: VIDP 102330Z 00000KT 2500 HZ NSC 24/04 Q1011 NOSIG

Time: 05:37 (00:07 UTC)

Forecast

The report was made 1 hour and 7 minutes ago, at 23:00 UTC
Forecast valid from 11 at 00 UTC to 11 at 09 UTC
Wind 2 kt from variable directions
Visibility: 2200 m
haze
Becoming
from 11 at 04 UTC to 11 at 06 UTC
Wind 6 kt from the West/Northwest
Visibility: 3000 m
Few clouds at a height of 10000 ft
haze
Becoming
from 11 at 08 UTC to 11 at 09 UTC
Wind 10 kt from the West
Visibility: 5000 m
haze

TAF: VIDP 102300Z 1100/1109 VRB02KT 2200 HZ NSC BECMG 1104/1106 29006KT 3000 HZ FEW100 BECMG 1108/1109 27010KT 5000 HZ

Weather observations and forecasts of more than 4000 airports (METAR and TAF reports).

The available stations are represented by yellow and red dots on the map.

Hover mouse over dot to see the name of the station.

Then click to see weather observations and forecasts.

To change the map : click on the green buttons with a black cross to zoom in, on the green button with a dash to zoom out, or on the green arrows for adjacent maps.


METAR-TAF: